Location: Newark
(16.3678°N, 77.8722°E)
Time: 02:05:03
(UTC+00:00)

Tiros 1 - Pass Details

Date: 17 December 2019
Orbit: 630 x 664 km, 48.4° (Epoch: 20 January)

Event Time Altitude Azimuth Distance (km) Brightness Sun altitude
Rises 05:37:49 0° 328° (NNW) 2,915 10.1 47.1°
Reaches altitude 10° 05:40:16 10° 336° (NNW) 2,003 9.4 47.3°
Maximum altitude 05:44:36 40° 46° (NE) 932 8.3 47.7°
Drops below altitude 10° 05:48:54 10° 116° (ESE) 1,995 10.3 48.0°
Sets 05:51:19 0° 124° (ESE) 2,902 11.0 48.2°
